DW2919 Weather Reports


time (UTC)temp
C
wind
direction
speed
KPH
gust
KPH
rain 1hr
cm
rain 24hr
cm
rain mn
cm
humidity
%
barometer
mb
20260507181502 11 28 8.0 11.3 0.00 0.00 0.00 79 1014.7
20260507180119 12 34 3.2 11.3 0.00 0.00 0.00 79 1014.8
20260507174606 12 34 4.8 11.3 0.00 0.00 0.00 79 1014.9
20260507173054 12 15 6.4 12.9 0.00 0.00 0.00 78 1014.9
20260507171628 12 5 8.0 12.9 0.00 0.00 0.00 78 1014.9
20260507170100 12 15 9.7 14.5 0.00 0.00 0.00 78 1014.9
20260507164553 12 15 9.7 14.5 0.00 0.00 0.00 78 1014.9
20260507163007 12 15 6.4 11.3 0.00 0.00 0.00 78 1015.1
20260507161619 12 18 8.0 12.9 0.00 0.00 0.00 77 1015.1
20260507160105 12 12 6.4 11.3 0.00 0.00 0.00 77 1015.0
20260507154503 12 22 8.0 14.5 0.00 0.00 0.00 77 1015.0
20260507153101 12 5 8.0 14.5 0.00 0.00 0.00 76 1015.0
20260507151546 12 28 8.0 16.1 0.00 0.00 0.00 76 1015.0
20260507150020 13 5 9.7 16.1 0.00 0.00 0.00 75 1014.9
20260507144602 13 5 6.4 12.9 0.00 0.00 0.00 75 1014.9
20260507143005 13 13 6.4 16.1 0.00 0.00 0.00 75 1015.0
20260507141603 13 29 8.0 14.5 0.00 0.00 0.00 74 1014.9
20260507140002 13 24 8.0 14.5 0.00 0.00 0.00 73 1015.0
20260507134621 13 360 4.8 12.9 0.00 0.00 0.00 72 1015.1
20260507133100 13 12 0.0 6.4 0.00 0.00 0.00 70 1015.0
20260507131508 13 12 3.2 9.7 0.00 0.00 0.00 68 1015.0
20260507130124 13 12 6.4 11.3 0.00 0.00 0.00 69 1015.0
20260507124551 14 360 3.2 8.0 0.00 0.00 0.00 68 1014.9
20260507123121 14 30 1.6 9.7 0.00 0.00 0.00 67 1014.8
20260507121622 15 20 0.0 8.0 0.00 0.00 0.00 67 1014.9
20260507120103 15 18 4.8 9.7 0.00 0.00 0.00 66 1014.8
20260507114506 15 355 6.4 11.3 0.00 0.00 0.00 65 1014.8
20260507113117 14 304 4.8 11.3 0.00 0.00 0.00 70 1014.8
20260507111547 14 327 6.4 9.7 0.00 0.00 0.00 70 1014.8
20260507110031 14 40 1.6 9.7 0.00 0.00 0.00 69 1014.9
20260507104625 13 17 4.8 8.0 0.00 0.00 0.00 70 1015.1
20260507103111 13 20 6.4 9.7 0.00 0.00 0.00 70 1015.1
20260507101613 13 47 4.8 9.7 0.00 0.00 0.00 70 1015.1
20260507100047 13 289 4.8 8.0 0.00 0.00 0.00 71 1015.0
20260507094511 13 242 1.6 11.3 0.00 0.00 0.00 69 1014.9
20260507093002 13 157 1.6 8.0 0.00 0.00 0.00 70 1014.9
20260507091556 13 102 8.0 11.3 0.00 0.00 0.00 73 1014.8
20260507090042 13 112 4.8 16.1 0.00 0.00 0.00 78 1014.7
20260507084640 13 117 8.0 11.3 0.00 0.00 0.00 81 1014.8
20260507083103 12 98 8.0 11.3 0.00 0.00 0.00 87 1014.6
20260507081552 11 100 3.2 9.7 0.00 0.00 0.00 89 1014.6
20260507080041 10 96 6.4 9.7 0.00 0.00 0.00 90 1014.6
20260507074502 10 74 6.4 11.3 0.00 0.00 0.00 91 1014.6
20260507073118 9 86 8.0 11.3 0.00 0.00 0.00 92 1014.4
20260507071609 9 82 6.4 11.3 0.00 0.00 0.00 92 1014.3
20260507070054 8 80 8.0 11.3 0.00 0.00 0.00 93 1014.3
20260507064518 8 62 4.8 8.0 0.00 0.00 0.00 93 1014.3
20260507063008 8 60 6.4 9.7 0.00 0.00 0.00 93 1014.3
20260507061602 8 50 1.6 4.8 0.00 0.00 0.00 93 1014.2
20260507060048 7 50 1.6 8.0 0.00 0.00 0.00 93 1014.1
20260507054642 7 50 3.2 4.8 0.00 0.00 0.00 93 1013.9
20260507053125 7 50 0.0 3.2 0.00 0.00 0.00 93 1013.7
20260507051604 7 50 0.0 3.2 0.00 0.00 0.00 93 1013.5
20260507050027 7 50 0.0 0.0 0.00 0.00 0.00 93 1013.4
20260507044509 7 50 0.0 0.0 0.00 0.00 0.00 93 1013.3
20260507043125 7 50 0.0 6.4 0.00 0.00 0.00 92 1013.3
20260507041615 7 50 4.8 8.0 0.00 0.00 0.00 92 1013.2
20260507034555 7 312 0.0 0.0 0.00 0.00 0.00 93 1012.8
20260507033037 7 313 0.0 0.0 0.00 0.00 0.00 93 1012.6
20260507031501 6 312 0.0 0.0 0.00 0.00 0.00 92 1012.4
20260507030117 6 312 0.0 0.0 0.00 0.00 0.00 92 1012.4
20260507024609 6 312 0.0 1.6 0.00 0.00 0.00 92 1012.4
20260507023010 6 312 0.0 0.0 0.00 0.00 0.00 92 1012.3
20260507021625 6 312 1.6 3.2 0.00 0.00 0.00 92 1012.4
20260507020116 5 312 1.6 4.8 0.00 0.00 0.00 91 1012.3
20260507014517 5 312 1.6 8.0 0.00 0.00 0.00 91 1012.1
20260507013004 6 312 3.2 9.7 0.00 0.00 0.00 91 1012.2
20260507011617 6 342 0.0 3.2 0.00 0.00 0.00 91 1012.1
20260507010105 5 342 1.6 3.2 0.00 0.00 0.00 91 1012.1
20260507004602 5 342 1.6 3.2 0.00 0.00 0.00 91 1012.0
20260507003045 5 342 1.6 3.2 0.00 0.00 0.00 90 1012.1
20260507001509 6 342 0.0 0.0 0.00 0.00 0.00 90 1012.0
20260507000121 6 342 1.6 3.2 0.00 0.00 0.00 90 1012.0
20260506234602 6 342 1.6 3.2 0.00 0.00 0.00 90 1012.0
20260506233102 7 342 1.6 3.2 0.00 0.00 0.00 90 1011.9
20260506231514 7 342 0.0 6.4 0.00 0.00 0.00 90 1011.9
20260506230006 7 342 1.6 4.8 0.00 0.00 0.00 90 1011.9
20260506224620 8 342 0.0 3.2 0.00 0.00 0.00 89 1011.7
20260506223047 8 342 1.6 4.8 0.00 0.00 0.00 89 1011.5
20260506221618 8 342 1.6 4.8 0.00 0.00 0.00 89 1011.6
20260506220106 8 343 3.2 8.0 0.00 0.00 0.00 89 1011.6
20260506214556 9 345 3.2 8.0 0.00 0.00 0.00 89 1011.4
20260506213021 9 345 1.6 8.0 0.00 0.00 0.00 89 1011.4
20260506211505 9 321 6.4 9.7 0.00 0.00 0.00 88 1011.4
20260506210059 9 323 0.0 9.7 0.00 0.00 0.00 88 1011.3
20260506204523 10 342 4.8 11.3 0.00 0.00 0.00 87 1011.2
20260506203012 10 342 4.8 11.3 0.00 0.00 0.00 87 1011.1
20260506201628 10 346 3.2 9.7 0.00 0.00 0.00 86 1011.1
20260506200053 10 344 4.8 9.7 0.00 0.00 0.00 86 1011.0
20260506194542 10 340 4.8 12.9 0.00 0.00 0.00 85 1010.9
20260506193111 11 329 8.0 12.9 0.00 0.00 0.00 84 1010.8
20260506191601 11 342 4.8 14.5 0.00 0.00 0.00 83 1010.5
20260506190047 11 340 6.4 17.7 0.00 0.00 0.00 82 1010.4
20260506184522 11 350 14.5 22.5 0.00 0.00 0.00 80 1010.2
20260506183005 12 15 11.3 20.9 0.00 0.00 0.00 79 1010.2